Find Starlink 31431

NORAD ID: 59002 Int'l Des: 2024-036 Owner: SPXS Country: US Constellation: starlink operational
LEOCIRCULAR

Live Position

Loading 3D Globe...

About Starlink 31431

Description loading...

Upcoming Passes

Passes for default location (London). Set your location on the main map for personalized predictions.

Altitude History

Loading altitude history...

Two-Line Element Set

1 59002U 24036E 26126.58130570 -.00000038 00000-0 10855-4 0 9992
2 59002 53.1592 169.4459 0001195 88.5430 271.5707 15.30184208124182
Epoch: May 6, 2026 • Age: 14 hours

Current Status

Altitude 493.8 km
Velocity 7.62 km/s
Sub-Earth Point -51.30°S, 177.44°E
Launch Date Feb 23, 2024
Age 2.1 years
Type internet

Technical Details

Classification Payload
Mass 730.00 kg
Dry Mass 700.00 kg
Total Mass 730.00 kg
Length 0.30 m
Diameter 4.10 m
Span 29.00 m
Shape Box + pan
Manufacturer SPXS
Bus Type Starlink V2M
Phase Status In Orbit
Owner/State SPXS/US

Most Searched